Home > Weather > Barnaul > Past weeks

Flag for Russia Past Weather in Barnaul, Russia — Yesterday and Last 2 Weeks

Now
75 °F

Passing clouds.


Feels Like: 76 °F
Forecast: 57 / 80 °F
Wind: 1 mph from North

Location: Barnaul Airport

Current Time: May 25, 2016 at 8:16:32 PM

Latest Report: May 25, 2016 at 7:30 PM


Visibility: N/A

Pressure: 29.86 "Hg

Humidity: 24%

Dew Point: 36 °F

Location of BarnaulLocation

Past Weather in Barnaul — Graph

°F

Barnaul Temperature Yesterday

Maximum temperature yesterday: 81 °F (at 2:30 PM)
Minimum temperature yesterday: 57 °F (at 5:30 AM)
Average temperature yesterday: 69 °F

High & Low Weather Summary for the Past Weeks

 TemperatureHumidityPressure
High81 °F (May 24, 2:30 PM)100% (May 19, 12:30 AM)30.57 "Hg (May 19, 12:30 AM)
Low34 °F (May 19, 4:00 AM)12% (May 14, 2:30 PM)29.59 "Hg (May 15, 7:30 PM)
Average55 °F42%30.08 "Hg
* Reported May 10 7:00 PM — May 25 7:00 PM, Barnaul, Weather by CustomWeather, © 2016

Note: Actual official high and low records may vary slightly from our data, if they occured in-between our weather recording intervals... More about our weather records

Advertising

Barnaul Weather History for the Previous 24 Hours

Scroll right to see more
 ConditionsComfort  
Time TempWeatherWind HumidityBarometerVisibility
7:00 PM
Wed, May 25
75 °FPassing clouds.6 mph19%29.86 "HgN/A
6:30 PM75 °FPassing clouds.3 mph22%29.86 "HgN/A
6:00 PM75 °FPassing clouds.8 mph22%29.89 "HgN/A
5:30 PM77 °FPassing clouds.1 mph21%29.89 "HgN/A
5:00 PM75 °FPassing clouds.8 mph22%29.92 "HgN/A
4:30 PM75 °FPassing clouds.8 mph22%29.92 "HgN/A
4:00 PM75 °FPassing clouds.8 mph22%29.92 "HgN/A
3:30 PM75 °FPassing clouds.8 mph21%29.95 "HgN/A
3:00 PM75 °FPassing clouds.8 mph24%29.95 "HgN/A
2:30 PM75 °FSunny.10 mph24%29.98 "Hg10 mi
2:00 PM73 °FSunny.8 mph23%29.98 "Hg10 mi
1:30 PM73 °FSunny.8 mph22%29.98 "Hg10 mi
1:00 PM72 °FSunny.10 mph22%30.01 "Hg10 mi
12:30 PM72 °FSunny.10 mph22%30.01 "Hg10 mi
12:00 PM72 °FSunny.8 mph20%30.04 "Hg10 mi
11:30 AM70 °FSunny.10 mph23%30.04 "Hg10 mi
11:00 AM70 °FPassing clouds.8 mph25%30.04 "HgN/A
10:30 AM70 °FPassing clouds.8 mph23%30.07 "HgN/A
10:00 AM68 °FSunny.6 mph35%30.07 "Hg10 mi
9:30 AM68 °FSunny.3 mph26%30.07 "Hg10 mi
9:00 AM68 °FSunny.1 mph20%30.07 "Hg10 mi
8:30 AM66 °FPassing clouds.3 mph22%30.07 "HgN/A
8:00 AM63 °FSunny.3 mph30%30.07 "Hg10 mi
7:30 AM61 °FSunny.3 mph34%30.07 "Hg10 mi
7:00 AM57 °FSunny.3 mph36%30.09 "Hg10 mi
6:30 AM57 °FSunny.6 mph31%30.09 "Hg10 mi
6:00 AM57 °FSunny.6 mph29%30.09 "Hg10 mi
5:30 AM57 °FClear.6 mph31%30.09 "HgN/A
5:00 AM55 °FClear.6 mph36%30.09 "HgN/A
4:30 AM55 °FClear.6 mph36%30.09 "HgN/A
4:00 AM57 °FClear.8 mph36%30.09 "HgN/A
3:30 AM57 °FClear.6 mph41%30.09 "HgN/A
3:00 AM57 °FClear.6 mph41%30.09 "HgN/A
2:30 AM57 °FClear.8 mph44%30.09 "Hg10 mi
2:00 AM59 °FClear.8 mph42%30.09 "Hg10 mi
1:30 AM61 °FClear.10 mph39%30.09 "Hg10 mi
1:00 AM61 °FClear.13 mph39%30.09 "Hg10 mi
12:30 AM61 °FClear.10 mph42%30.12 "Hg10 mi
12:00 AM63 °FClear.10 mph39%30.12 "Hg10 mi
11:30 PM
Tue, May 24
63 °FClear.10 mph39%30.12 "Hg10 mi
11:00 PM64 °FClear.8 mph37%30.12 "Hg10 mi
10:30 PM64 °FClear.8 mph37%30.12 "Hg10 mi
10:00 PM64 °FClear.10 mph37%30.09 "Hg10 mi
9:30 PM68 °FClear.8 mph33%30.09 "Hg10 mi
9:00 PM70 °FPassing clouds.8 mph31%30.09 "HgN/A
8:30 PM73 °FPassing clouds.13 mph27%30.09 "HgN/A
8:00 PM75 °FPassing clouds.13 mph24%30.09 "HgN/A
Weather by CustomWeather, © 2016

See weather overviewHow to use our weather pages